Time,TemperatureF,DewpointF,PressureIn,WindDirection,WindDirectionDegrees,WindSpeedMPH,WindSpeedGustMPH,Humidity,HourlyPrecipIn,Conditions,Clouds,dailyrainin,SoftwareType,DateUTC
2013-02-20 00:01:00,32.5,30.9,29.73,West,268,0.0,0.0,94,0.00,,,0.00,meteohub,2013-02-20 08:01:00,
2013-02-20 00:06:00,32.4,30.7,29.73,West,268,0.0,0.0,94,0.00,,,0.00,meteohub,2013-02-20 08:06:00,
2013-02-20 00:11:00,32.4,30.7,29.73,West,268,0.0,0.0,94,0.00,,,0.00,meteohub,2013-02-20 08:11:00,
2013-02-20 00:16:00,32.2,30.6,29.73,West,268,0.0,0.0,94,0.00,,,0.00,meteohub,2013-02-20 08:16:00,
2013-02-20 00:21:00,32.2,30.9,29.73,West,268,0.0,0.0,95,0.00,,,0.00,meteohub,2013-02-20 08:21:00,
2013-02-20 00:26:00,32.2,30.9,29.73,West,268,0.0,0.0,95,0.00,,,0.00,meteohub,2013-02-20 08:26:00,
2013-02-20 00:31:00,32.2,30.9,29.73,West,268,0.0,0.0,95,0.00,,,0.00,meteohub,2013-02-20 08:31:00,
2013-02-20 00:36:00,32.2,30.9,29.73,West,268,0.0,0.0,95,0.00,,,0.00,meteohub,2013-02-20 08:36:00,
2013-02-20 00:41:00,32.0,30.7,29.73,West,268,0.0,0.0,95,0.00,,,0.00,meteohub,2013-02-20 08:41:00,
2013-02-20 00:46:00,32.0,30.7,29.73,West,268,0.0,0.0,95,0.00,,,0.00,meteohub,2013-02-20 08:46:00,
2013-02-20 00:51:00,31.8,30.6,29.73,West,268,0.0,0.0,95,0.00,,,0.00,meteohub,2013-02-20 08:51:00,
2013-02-20 00:56:00,31.8,30.6,29.73,West,268,0.0,0.0,95,0.00,,,0.00,meteohub,2013-02-20 08:56:00,
2013-02-20 01:01:00,31.6,30.4,29.73,West,268,0.0,0.0,95,0.00,,,0.00,meteohub,2013-02-20 09:01:00,
2013-02-20 01:06:00,31.6,30.4,29.73,West,268,0.0,0.0,95,0.00,,,0.00,meteohub,2013-02-20 09:06:00,
2013-02-20 01:11:00,31.5,30.2,29.73,West,268,0.0,1.0,95,0.00,,,0.00,meteohub,2013-02-20 09:11:00,
2013-02-20 01:16:00,31.6,30.6,29.73,West,268,0.0,1.0,96,0.00,,,0.00,meteohub,2013-02-20 09:16:00,
2013-02-20 01:21:00,31.6,30.4,29.73,West,268,0.0,1.0,95,0.00,,,0.00,meteohub,2013-02-20 09:21:00,
2013-02-20 01:26:00,31.5,30.2,29.74,West,268,0.0,1.0,95,0.00,,,0.00,meteohub,2013-02-20 09:26:00,
2013-02-20 01:31:00,31.3,30.0,29.74,West,268,0.0,1.0,95,0.00,,,0.00,meteohub,2013-02-20 09:31:00,
2013-02-20 01:36:00,31.3,30.0,29.74,West,268,0.0,5.0,95,0.00,,,0.00,meteohub,2013-02-20 09:36:00,
2013-02-20 01:41:00,31.5,30.4,29.74,West,268,0.0,5.0,96,0.00,,,0.00,meteohub,2013-02-20 09:41:00,
2013-02-20 01:46:00,32.0,30.9,29.74,West,268,0.0,5.0,96,0.00,,,0.00,meteohub,2013-02-20 09:46:00,
2013-02-20 01:51:00,32.5,31.8,29.74,West,268,0.0,4.0,97,0.00,,,0.00,meteohub,2013-02-20 09:51:00,
2013-02-20 01:56:00,32.7,32.0,29.75,West,268,0.0,4.0,97,0.00,,,0.00,meteohub,2013-02-20 09:56:00,
2013-02-20 02:01:00,33.1,32.4,29.75,West,268,0.0,0.0,97,0.00,,,0.00,meteohub,2013-02-20 10:01:00,
2013-02-20 02:06:00,33.3,32.5,29.75,West,268,0.0,0.0,97,0.00,,,0.00,meteohub,2013-02-20 10:06:00,
2013-02-20 02:11:00,33.4,32.4,29.75,West,268,0.0,0.0,96,0.00,,,0.00,meteohub,2013-02-20 10:11:00,
2013-02-20 02:16:00,33.3,32.2,29.75,West,268,0.0,0.0,96,0.00,,,0.00,meteohub,2013-02-20 10:16:00,
2013-02-20 02:21:00,33.1,31.8,29.75,West,268,0.0,0.0,95,0.00,,,0.00,meteohub,2013-02-20 10:21:00,
2013-02-20 02:26:00,32.7,31.5,29.76,West,268,0.0,0.0,95,0.00,,,0.00,meteohub,2013-02-20 10:26:00,
2013-02-20 02:31:00,32.5,31.3,29.76,West,268,0.0,0.0,95,0.00,,,0.00,meteohub,2013-02-20 10:31:00,
2013-02-20 02:36:00,32.4,30.7,29.76,West,268,0.0,0.0,94,0.00,,,0.00,meteohub,2013-02-20 10:36:00,
2013-02-20 02:41:00,32.2,30.9,29.76,West,268,0.0,0.0,95,0.00,,,0.00,meteohub,2013-02-20 10:41:00,
2013-02-20 02:46:00,32.2,30.9,29.76,West,268,0.0,0.0,95,0.00,,,0.00,meteohub,2013-02-20 10:46:00,
2013-02-20 02:51:00,32.2,30.9,29.76,West,268,0.0,0.0,95,0.00,,,0.00,meteohub,2013-02-20 10:51:00,
2013-02-20 02:56:00,32.4,31.3,29.76,West,268,0.0,0.0,96,0.00,,,0.00,meteohub,2013-02-20 10:56:00,
2013-02-20 03:01:00,32.5,31.5,29.76,West,268,0.0,1.0,96,0.00,,,0.00,meteohub,2013-02-20 11:01:00,
2013-02-20 03:06:00,32.9,31.8,29.76,West,268,0.0,2.0,96,0.00,,,0.00,meteohub,2013-02-20 11:06:00,
2013-02-20 03:11:00,33.1,32.0,29.77,West,268,0.0,2.0,96,0.00,,,0.00,meteohub,2013-02-20 11:11:00,
2013-02-20 03:16:00,33.3,32.2,29.77,West,268,0.0,2.0,96,0.00,,,0.00,meteohub,2013-02-20 11:16:00,
2013-02-20 03:21:00,33.4,32.4,29.77,West,268,0.0,2.0,96,0.00,,,0.00,meteohub,2013-02-20 11:21:00,
2013-02-20 03:26:00,33.6,32.5,29.77,West,268,0.0,3.0,96,0.00,,,0.00,meteohub,2013-02-20 11:26:00,
2013-02-20 03:31:00,33.6,32.4,29.77,West,268,0.0,3.0,95,0.00,,,0.00,meteohub,2013-02-20 11:31:00,
2013-02-20 03:36:00,34.2,32.5,29.77,West,268,0.0,5.0,94,0.00,,,0.00,meteohub,2013-02-20 11:36:00,
2013-02-20 03:41:00,34.5,32.7,29.77,West,268,0.0,5.0,93,0.00,,,0.00,meteohub,2013-02-20 11:41:00,
2013-02-20 03:46:00,34.5,32.7,29.77,West,268,0.0,3.0,93,0.00,,,0.00,meteohub,2013-02-20 11:46:00,
2013-02-20 03:51:00,34.3,32.2,29.77,West,268,0.0,2.0,92,0.00,,,0.00,meteohub,2013-02-20 11:51:00,
2013-02-20 03:56:00,34.2,32.4,29.77,West,268,0.0,1.0,93,0.00,,,0.00,meteohub,2013-02-20 11:56:00,
2013-02-20 04:01:00,34.0,31.8,29.77,West,268,0.0,1.0,92,0.00,,,0.00,meteohub,2013-02-20 12:01:00,
2013-02-20 04:06:00,33.6,31.8,29.77,West,268,0.0,1.0,93,0.00,,,0.00,meteohub,2013-02-20 12:06:00,
2013-02-20 04:11:00,33.6,31.8,29.78,West,268,1.0,1.0,93,0.00,,,0.00,meteohub,2013-02-20 12:11:00,
2013-02-20 04:16:00,33.6,32.0,29.78,West,268,0.0,2.0,94,0.00,,,0.00,meteohub,2013-02-20 12:16:00,
2013-02-20 04:21:00,34.0,32.2,29.78,West,268,1.0,3.0,93,0.00,,,0.00,meteohub,2013-02-20 12:21:00,
2013-02-20 04:26:00,34.3,32.2,29.78,West,268,0.0,3.0,92,0.00,,,0.00,meteohub,2013-02-20 12:26:00,
2013-02-20 04:31:00,34.5,32.4,29.78,West,268,0.0,3.0,92,0.00,,,0.00,meteohub,2013-02-20 12:31:00,
2013-02-20 04:36:00,34.5,32.4,29.78,West,268,0.0,1.0,92,0.00,,,0.00,meteohub,2013-02-20 12:36:00,
2013-02-20 04:41:00,34.7,32.5,29.78,West,268,0.0,3.0,92,0.00,,,0.00,meteohub,2013-02-20 12:41:00,
2013-02-20 04:46:00,34.9,32.7,29.78,West,268,0.0,3.0,92,0.00,,,0.00,meteohub,2013-02-20 12:46:00,
2013-02-20 04:51:00,34.9,32.7,29.78,West,268,0.0,0.0,92,0.00,,,0.00,meteohub,2013-02-20 12:51:00,
2013-02-20 04:56:00,34.9,32.7,29.79,West,268,0.0,2.0,92,0.00,,,0.00,meteohub,2013-02-20 12:56:00,
2013-02-20 05:01:00,34.5,32.4,29.79,West,268,0.0,2.0,92,0.00,,,0.00,meteohub,2013-02-20 13:01:00,
2013-02-20 05:06:00,34.5,32.4,29.79,West,268,0.0,2.0,92,0.00,,,0.00,meteohub,2013-02-20 13:06:00,
2013-02-20 05:11:00,34.5,32.4,29.79,West,268,0.0,1.0,92,0.00,,,0.00,meteohub,2013-02-20 13:11:00,
2013-02-20 05:16:00,34.5,32.4,29.79,West,268,0.0,3.0,92,0.00,,,0.00,meteohub,2013-02-20 13:16:00,
2013-02-20 05:21:00,34.3,32.2,29.79,West,268,0.0,3.0,92,0.00,,,0.00,meteohub,2013-02-20 13:21:00,
2013-02-20 05:27:00,34.3,32.2,29.79,West,268,0.0,3.0,92,0.00,,,0.00,meteohub,2013-02-20 13:27:00,
2013-02-20 05:32:00,34.2,32.0,29.79,West,268,0.0,1.0,92,0.00,,,0.00,meteohub,2013-02-20 13:32:00,
2013-02-20 05:37:00,34.0,31.8,29.79,West,268,0.0,2.0,92,0.00,,,0.00,meteohub,2013-02-20 13:37:00,
2013-02-20 05:42:00,34.0,32.2,29.79,West,268,0.0,2.0,93,0.00,,,0.00,meteohub,2013-02-20 13:42:00,
2013-02-20 05:47:00,34.0,32.2,29.79,West,268,0.0,2.0,93,0.00,,,0.00,meteohub,2013-02-20 13:47:00,
2013-02-20 05:52:00,34.0,32.2,29.79,West,268,0.0,0.0,93,0.00,,,0.00,meteohub,2013-02-20 13:52:00,
2013-02-20 05:57:00,34.0,32.2,29.80,West,268,0.0,0.0,93,0.00,,,0.00,meteohub,2013-02-20 13:57:00,
2013-02-20 06:02:00,33.8,32.0,29.80,West,268,0.0,0.0,93,0.00,,,0.00,meteohub,2013-02-20 14:02:00,
2013-02-20 06:07:00,33.6,31.8,29.80,West,268,0.0,0.0,93,0.00,,,0.00,meteohub,2013-02-20 14:07:00,
2013-02-20 06:12:00,33.4,31.3,29.81,West,268,0.0,0.0,92,0.00,,,0.00,meteohub,2013-02-20 14:12:00,
2013-02-20 06:17:00,33.1,31.1,29.81,West,268,0.0,0.0,92,0.00,,,0.00,meteohub,2013-02-20 14:17:00,
2013-02-20 06:22:00,32.9,31.1,29.81,West,268,0.0,0.0,93,0.00,,,0.00,meteohub,2013-02-20 14:22:00,
2013-02-20 06:27:00,32.5,30.6,29.81,West,268,0.0,0.0,92,0.00,,,0.00,meteohub,2013-02-20 14:27:00,
2013-02-20 06:32:00,32.4,30.4,29.81,West,268,0.0,1.0,92,0.00,,,0.00,meteohub,2013-02-20 14:32:00,
2013-02-20 06:37:00,32.2,30.4,29.81,West,268,0.0,1.0,93,0.00,,,0.00,meteohub,2013-02-20 14:37:00,
2013-02-20 06:42:00,32.5,31.3,29.81,West,268,0.0,3.0,95,0.00,,,0.00,meteohub,2013-02-20 14:42:00,
2013-02-20 06:47:00,33.4,31.8,29.81,West,268,0.0,3.0,94,0.00,,,0.00,meteohub,2013-02-20 14:47:00,
2013-02-20 06:52:00,34.0,32.2,29.81,West,268,0.0,3.0,93,0.00,,,0.00,meteohub,2013-02-20 14:52:00,
2013-02-20 06:57:00,34.0,31.8,29.82,West,268,0.0,3.0,92,0.00,,,0.00,meteohub,2013-02-20 14:57:00,
2013-02-20 07:02:00,34.0,32.2,29.82,West,268,0.0,1.0,93,0.00,,,0.00,meteohub,2013-02-20 15:02:00,
2013-02-20 07:07:00,34.2,32.0,29.82,West,268,0.0,1.0,92,0.00,,,0.00,meteohub,2013-02-20 15:07:00,
2013-02-20 07:12:00,34.2,32.4,29.82,West,268,0.0,1.0,93,0.00,,,0.00,meteohub,2013-02-20 15:12:00,
2013-02-20 07:17:00,34.2,32.4,29.82,West,268,0.0,1.0,93,0.00,,,0.00,meteohub,2013-02-20 15:17:00,
2013-02-20 07:22:00,34.2,32.4,29.82,West,268,0.0,1.0,93,0.00,,,0.00,meteohub,2013-02-20 15:22:00,
2013-02-20 07:27:00,34.2,32.4,29.83,West,268,0.0,1.0,93,0.00,,,0.00,meteohub,2013-02-20 15:27:00,
2013-02-20 07:32:00,34.2,32.0,29.83,West,268,0.0,0.0,92,0.00,,,0.00,meteohub,2013-02-20 15:32:00,
2013-02-20 07:37:00,34.0,32.2,29.83,West,268,0.0,0.0,93,0.00,,,0.00,meteohub,2013-02-20 15:37:00,
2013-02-20 07:42:00,33.6,31.5,29.83,West,268,0.0,0.0,92,0.00,,,0.00,meteohub,2013-02-20 15:42:00,
2013-02-20 07:47:00,33.4,31.3,29.83,West,268,0.0,0.0,92,0.00,,,0.00,meteohub,2013-02-20 15:47:00,
2013-02-20 07:52:00,33.4,31.3,29.83,West,268,0.0,0.0,92,0.00,,,0.00,meteohub,2013-02-20 15:52:00,
2013-02-20 07:57:00,33.3,31.5,29.84,West,268,0.0,0.0,93,0.00,,,0.00,meteohub,2013-02-20 15:57:00,
2013-02-20 08:02:00,33.6,31.8,29.84,West,268,0.0,0.0,93,0.00,,,0.00,meteohub,2013-02-20 16:02:00,
2013-02-20 08:07:00,34.3,32.2,29.84,West,268,0.0,0.0,92,0.00,,,0.00,meteohub,2013-02-20 16:07:00,
2013-02-20 08:12:00,35.1,32.9,29.84,West,268,0.0,1.0,92,0.00,,,0.00,meteohub,2013-02-20 16:12:00,
2013-02-20 08:17:00,36.0,33.8,29.84,West,268,0.0,1.0,92,0.00,,,0.00,meteohub,2013-02-20 16:17:00,
2013-02-20 08:22:00,37.0,34.3,29.84,West,268,0.0,0.0,90,0.00,,,0.00,meteohub,2013-02-20 16:22:00,
2013-02-20 08:27:00,37.9,35.1,29.85,West,268,0.0,0.0,89,0.00,,,0.00,meteohub,2013-02-20 16:27:00,
2013-02-20 08:32:00,38.8,35.2,29.85,West,268,0.0,0.0,87,0.00,,,0.00,meteohub,2013-02-20 16:32:00,
2013-02-20 08:37:00,39.7,35.6,29.85,West,268,0.0,0.0,85,0.00,,,0.00,meteohub,2013-02-20 16:37:00,
2013-02-20 08:42:00,40.5,35.4,29.85,West,268,0.0,1.0,82,0.00,,,0.00,meteohub,2013-02-20 16:42:00,
2013-02-20 08:47:00,41.4,35.4,29.85,West,268,1.0,1.0,79,0.00,,,0.00,meteohub,2013-02-20 16:47:00,
2013-02-20 08:52:00,42.3,36.0,29.85,West,268,0.0,2.0,78,0.00,,,0.00,meteohub,2013-02-20 16:52:00,
2013-02-20 08:57:00,43.0,35.6,29.85,West,268,0.0,2.0,75,0.00,,,0.00,meteohub,2013-02-20 16:57:00,
2013-02-20 09:02:00,43.5,36.1,29.85,West,268,0.0,2.0,75,0.00,,,0.00,meteohub,2013-02-20 17:02:00,
2013-02-20 09:07:00,43.9,36.9,29.85,West,268,2.0,2.0,76,0.00,,,0.00,meteohub,2013-02-20 17:07:00,
2013-02-20 09:12:00,43.5,35.8,29.86,West,268,0.0,2.0,74,0.00,,,0.00,meteohub,2013-02-20 17:12:00,
2013-02-20 09:17:00,44.1,36.7,29.86,West,268,0.0,2.0,75,0.00,,,0.00,meteohub,2013-02-20 17:17:00,
2013-02-20 09:22:00,44.4,35.2,29.86,West,268,0.0,2.0,70,0.00,,,0.00,meteohub,2013-02-20 17:22:00,
2013-02-20 09:27:00,45.0,36.1,29.86,West,268,1.0,4.0,71,0.00,,,0.00,meteohub,2013-02-20 17:27:00,
2013-02-20 09:32:00,45.1,37.4,29.86,West,268,1.0,4.0,74,0.00,,,0.00,meteohub,2013-02-20 17:32:00,
2013-02-20 09:37:00,45.9,36.0,29.86,West,279,3.0,4.0,68,0.00,,,0.00,meteohub,2013-02-20 17:37:00,
2013-02-20 09:42:00,46.2,36.3,29.87,WNW,286,4.0,4.0,68,0.00,,,0.00,meteohub,2013-02-20 17:42:00,
2013-02-20 09:47:00,46.8,36.7,29.87,WNW,286,0.0,4.0,68,0.00,,,0.00,meteohub,2013-02-20 17:47:00,
2013-02-20 09:52:00,47.3,37.6,29.87,WNW,286,0.0,4.0,69,0.00,,,0.00,meteohub,2013-02-20 17:52:00,
2013-02-20 09:57:00,47.8,37.0,29.87,WNW,284,0.0,4.0,66,0.00,,,0.00,meteohub,2013-02-20 17:57:00,
2013-02-20 10:02:00,48.4,36.7,29.87,WNW,284,1.0,10.0,64,0.00,,,0.00,meteohub,2013-02-20 18:02:00,
2013-02-20 10:07:00,48.7,36.3,29.87,WNW,291,2.0,10.0,62,0.00,,,0.00,meteohub,2013-02-20 18:07:00,
2013-02-20 10:12:00,48.9,36.5,29.87,WNW,287,1.0,10.0,62,0.00,,,0.00,meteohub,2013-02-20 18:12:00,
2013-02-20 10:17:00,49.3,37.6,29.87,WNW,287,0.0,4.0,64,0.00,,,0.00,meteohub,2013-02-20 18:17:00,
2013-02-20 10:22:00,49.6,37.6,29.87,WNW,287,1.0,4.0,63,0.00,,,0.00,meteohub,2013-02-20 18:22:00,
2013-02-20 10:27:00,50.2,37.6,29.87,West,272,0.0,4.0,62,0.00,,,0.00,meteohub,2013-02-20 18:27:00,
2013-02-20 10:32:00,50.4,36.5,29.87,West,273,1.0,2.0,59,0.00,,,0.00,meteohub,2013-02-20 18:32:00,
2013-02-20 10:37:00,50.4,37.0,29.87,West,275,0.0,6.0,60,0.00,,,0.00,meteohub,2013-02-20 18:37:00,
2013-02-20 10:42:00,50.7,37.8,29.87,West,275,0.0,6.0,61,0.00,,,0.00,meteohub,2013-02-20 18:42:00,
2013-02-20 10:47:00,51.3,37.4,29.87,West,269,0.0,6.0,59,0.00,,,0.00,meteohub,2013-02-20 18:47:00,
2013-02-20 10:52:00,51.4,37.6,29.87,West,269,0.0,7.0,59,0.00,,,0.00,meteohub,2013-02-20 18:52:00,
2013-02-20 10:57:00,52.0,38.1,29.87,West,269,3.0,7.0,59,0.00,,,0.00,meteohub,2013-02-20 18:57:00,
2013-02-20 11:02:00,52.3,37.9,29.87,WNW,288,1.0,7.0,58,0.00,,,0.00,meteohub,2013-02-20 19:02:00,
2013-02-20 11:07:00,52.9,38.1,29.87,West,275,0.0,3.0,57,0.00,,,0.00,meteohub,2013-02-20 19:07:00,
2013-02-20 11:12:00,53.1,36.9,29.87,West,281,2.0,5.0,54,0.00,,,0.00,meteohub,2013-02-20 19:12:00,
2013-02-20 11:17:00,52.9,37.6,29.87,SW,233,3.0,6.0,56,0.00,,,0.00,meteohub,2013-02-20 19:17:00,
2013-02-20 11:22:00,52.9,37.6,29.87,WSW,257,0.0,6.0,56,0.00,,,0.00,meteohub,2013-02-20 19:22:00,
2013-02-20 11:27:00,53.1,37.8,29.86,WSW,257,0.0,6.0,56,0.00,,,0.00,meteohub,2013-02-20 19:27:00,
2013-02-20 11:32:00,53.2,38.5,29.86,WSW,257,0.0,5.0,57,0.00,,,0.00,meteohub,2013-02-20 19:32:00,
2013-02-20 11:37:00,53.8,39.4,29.86,WSW,257,0.0,5.0,58,0.00,,,0.00,meteohub,2013-02-20 19:37:00,
2013-02-20 11:42:00,54.0,38.1,29.86,NW,321,3.0,10.0,55,0.00,,,0.00,meteohub,2013-02-20 19:42:00,
2013-02-20 11:47:00,54.0,38.7,29.86,West,270,2.0,10.0,56,0.00,,,0.00,meteohub,2013-02-20 19:47:00,
2013-02-20 11:52:00,54.0,37.8,29.86,West,281,1.0,10.0,54,0.00,,,0.00,meteohub,2013-02-20 19:52:00,
2013-02-20 11:57:00,54.1,38.3,29.86,West,263,0.0,6.0,55,0.00,,,0.00,meteohub,2013-02-20 19:57:00,
2013-02-20 12:02:00,54.1,37.4,29.86,NW,305,4.0,6.0,53,0.00,,,0.00,meteohub,2013-02-20 20:02:00,
2013-02-20 12:07:00,54.1,37.4,29.86,NW,311,2.0,13.0,53,0.00,,,0.00,meteohub,2013-02-20 20:07:00,
2013-02-20 12:12:00,54.1,36.3,29.86,WNW,284,4.0,13.0,51,0.00,,,0.00,meteohub,2013-02-20 20:12:00,
2013-02-20 12:17:00,54.0,36.7,29.86,WNW,286,0.0,12.0,52,0.00,,,0.00,meteohub,2013-02-20 20:17:00,
2013-02-20 12:22:00,54.1,37.4,29.86,West,281,4.0,12.0,53,0.00,,,0.00,meteohub,2013-02-20 20:22:00,
2013-02-20 12:27:00,54.3,36.5,29.86,West,272,3.0,13.0,51,0.00,,,0.00,meteohub,2013-02-20 20:27:00,
2013-02-20 12:32:00,54.3,37.6,29.86,WNW,296,3.0,13.0,53,0.00,,,0.00,meteohub,2013-02-20 20:32:00,
2013-02-20 12:37:00,54.3,37.0,29.86,NNW,333,2.0,13.0,52,0.00,,,0.00,meteohub,2013-02-20 20:37:00,
2013-02-20 12:42:00,54.3,37.0,29.86,WNW,288,4.0,9.0,52,0.00,,,0.00,meteohub,2013-02-20 20:42:00,
2013-02-20 12:47:00,54.7,38.3,29.86,WNW,290,0.0,8.0,54,0.00,,,0.00,meteohub,2013-02-20 20:47:00,
2013-02-20 12:52:00,54.9,37.6,29.86,WNW,290,1.0,8.0,52,0.00,,,0.00,meteohub,2013-02-20 20:52:00,
2013-02-20 12:57:00,54.9,38.1,29.85,WNW,290,0.0,8.0,53,0.00,,,0.00,meteohub,2013-02-20 20:57:00,
2013-02-20 13:02:00,54.9,38.1,29.85,West,281,0.0,9.0,53,0.00,,,0.00,meteohub,2013-02-20 21:02:00,
2013-02-20 13:07:00,54.9,37.0,29.85,WSW,239,0.0,9.0,51,0.00,,,0.00,meteohub,2013-02-20 21:07:00,
2013-02-20 13:12:00,54.9,37.0,29.85,WSW,243,4.0,9.0,51,0.00,,,0.00,meteohub,2013-02-20 21:12:00,
2013-02-20 13:17:00,54.9,37.0,29.85,West,272,0.0,6.0,51,0.00,,,0.00,meteohub,2013-02-20 21:17:00,
2013-02-20 13:22:00,54.9,37.0,29.85,WSW,250,0.0,6.0,51,0.00,,,0.00,meteohub,2013-02-20 21:22:00,
2013-02-20 13:27:00,55.2,37.4,29.84,WSW,254,2.0,6.0,51,0.00,,,0.00,meteohub,2013-02-20 21:27:00,
2013-02-20 13:32:00,55.2,38.3,29.84,SW,233,1.0,10.0,53,0.00,,,0.00,meteohub,2013-02-20 21:32:00,
2013-02-20 13:37:00,54.9,37.0,29.84,SW,233,1.0,10.0,51,0.00,,,0.00,meteohub,2013-02-20 21:37:00,
2013-02-20 13:42:00,54.9,35.6,29.83,West,281,1.0,10.0,48,0.00,,,0.00,meteohub,2013-02-20 21:42:00,
2013-02-20 13:47:00,55.0,36.7,29.83,West,281,1.0,6.0,50,0.00,,,0.00,meteohub,2013-02-20 21:47:00,
2013-02-20 13:52:00,54.9,35.6,29.83,West,281,2.0,6.0,48,0.00,,,0.00,meteohub,2013-02-20 21:52:00,
2013-02-20 13:57:00,54.9,37.6,29.83,West,281,0.0,5.0,52,0.00,,,0.00,meteohub,2013-02-20 21:57:00,
2013-02-20 14:02:00,54.7,36.9,29.83,West,281,0.0,6.0,51,0.00,,,0.00,meteohub,2013-02-20 22:02:00,
2013-02-20 14:07:00,54.1,36.9,29.83,West,281,0.0,6.0,52,0.00,,,0.00,meteohub,2013-02-20 22:07:00,
2013-02-20 14:12:00,54.3,37.0,29.83,West,281,2.0,6.0,52,0.00,,,0.00,meteohub,2013-02-20 22:12:00,
2013-02-20 14:17:00,54.3,36.5,29.83,West,281,1.0,4.0,51,0.00,,,0.00,meteohub,2013-02-20 22:17:00,
2013-02-20 14:22:00,54.3,37.6,29.83,West,281,0.0,6.0,53,0.00,,,0.00,meteohub,2013-02-20 22:22:00,
2013-02-20 14:27:00,54.3,36.5,29.83,West,281,3.0,6.0,51,0.00,,,0.00,meteohub,2013-02-20 22:27:00,
2013-02-20 14:32:00,54.9,37.0,29.83,WNW,286,2.0,9.0,51,0.00,,,0.00,meteohub,2013-02-20 22:32:00,
2013-02-20 14:37:00,55.0,36.1,29.83,WSW,242,0.0,9.0,49,0.00,,,0.00,meteohub,2013-02-20 22:37:00,
2013-02-20 14:42:00,55.0,38.7,29.83,WSW,242,0.0,9.0,54,0.00,,,0.00,meteohub,2013-02-20 22:42:00,
2013-02-20 14:47:00,54.7,37.4,29.83,WSW,242,3.0,7.0,52,0.00,,,0.00,meteohub,2013-02-20 22:47:00,
2013-02-20 14:52:00,54.9,37.0,29.83,WNW,292,1.0,9.0,51,0.00,,,0.00,meteohub,2013-02-20 22:52:00,
2013-02-20 14:57:00,54.7,37.9,29.83,WNW,292,1.0,9.0,53,0.00,,,0.00,meteohub,2013-02-20 22:57:00,
2013-02-20 15:02:00,54.5,38.7,29.83,WNW,292,1.0,9.0,55,0.00,,,0.00,meteohub,2013-02-20 23:02:00,
2013-02-20 15:07:00,54.0,39.0,29.83,WNW,292,2.0,4.0,57,0.00,,,0.00,meteohub,2013-02-20 23:07:00,
2013-02-20 15:12:00,54.1,37.9,29.83,WSW,247,0.0,5.0,54,0.00,,,0.00,meteohub,2013-02-20 23:12:00,
2013-02-20 15:17:00,54.1,39.2,29.83,WSW,248,0.0,7.0,57,0.00,,,0.00,meteohub,2013-02-20 23:17:00,
2013-02-20 15:22:00,53.8,39.4,29.83,WSW,248,0.0,7.0,58,0.00,,,0.00,meteohub,2013-02-20 23:22:00,
2013-02-20 15:27:00,53.4,38.5,29.83,WSW,248,0.0,4.0,57,0.00,,,0.00,meteohub,2013-02-20 23:27:00,
2013-02-20 15:32:00,53.2,37.9,29.83,WSW,248,1.0,4.0,56,0.00,,,0.00,meteohub,2013-02-20 23:32:00,
2013-02-20 15:37:00,53.1,38.3,29.83,WSW,248,0.0,4.0,57,0.00,,,0.00,meteohub,2013-02-20 23:37:00,
2013-02-20 15:42:00,52.9,37.2,29.83,WSW,248,2.0,2.0,55,0.00,,,0.00,meteohub,2013-02-20 23:42:00,
2013-02-20 15:47:00,52.5,39.4,29.83,WSW,248,0.0,2.0,61,0.00,,,0.00,meteohub,2013-02-20 23:47:00,
2013-02-20 15:52:00,52.3,39.4,29.83,WSW,248,0.0,2.0,61,0.00,,,0.00,meteohub,2013-02-20 23:52:00,
2013-02-20 15:57:00,52.0,36.9,29.83,WSW,248,0.0,2.0,56,0.00,,,0.00,meteohub,2013-02-20 23:57:00,
2013-02-20 16:02:00,51.8,40.1,29.83,WSW,248,0.0,2.0,64,0.00,,,0.00,meteohub,2013-02-21 00:02:00,
2013-02-20 16:07:00,51.4,37.9,29.83,WSW,248,0.0,2.0,60,0.00,,,0.00,meteohub,2013-02-21 00:07:00,
2013-02-20 16:12:00,51.4,38.5,29.84,WSW,248,0.0,2.0,61,0.00,,,0.00,meteohub,2013-02-21 00:12:00,
2013-02-20 16:17:00,51.3,37.8,29.84,WSW,248,0.0,1.0,60,0.00,,,0.00,meteohub,2013-02-21 00:17:00,
2013-02-20 16:22:00,51.1,36.0,29.84,WSW,248,0.0,1.0,56,0.00,,,0.00,meteohub,2013-02-21 00:22:00,
2013-02-20 16:27:00,51.3,37.8,29.84,WSW,248,0.0,4.0,60,0.00,,,0.00,meteohub,2013-02-21 00:27:00,
2013-02-20 16:32:00,51.1,38.5,29.84,WSW,248,0.0,4.0,62,0.00,,,0.00,meteohub,2013-02-21 00:32:00,
2013-02-20 16:37:00,50.7,37.8,29.84,WSW,248,0.0,4.0,61,0.00,,,0.00,meteohub,2013-02-21 00:37:00,
2013-02-20 16:42:00,50.5,36.7,29.84,WSW,248,0.0,2.0,59,0.00,,,0.00,meteohub,2013-02-21 00:42:00,
2013-02-20 16:47:00,50.5,37.6,29.84,WSW,248,0.0,3.0,61,0.00,,,0.00,meteohub,2013-02-21 00:47:00,
2013-02-20 16:52:00,50.5,38.5,29.84,WSW,248,3.0,3.0,63,0.00,,,0.00,meteohub,2013-02-21 00:52:00,
2013-02-20 16:57:00,50.5,38.8,29.84,WSW,248,0.0,3.0,64,0.00,,,0.00,meteohub,2013-02-21 00:57:00,
2013-02-20 17:02:00,50.5,38.8,29.84,WSW,248,0.0,3.0,64,0.00,,,0.00,meteohub,2013-02-21 01:02:00,
2013-02-20 17:07:00,50.4,39.0,29.84,WSW,248,0.0,3.0,65,0.00,,,0.00,meteohub,2013-02-21 01:07:00,
2013-02-20 17:12:00,50.4,39.4,29.85,WSW,248,0.0,3.0,66,0.00,,,0.00,meteohub,2013-02-21 01:12:00,
2013-02-20 17:17:00,50.2,40.5,29.85,WSW,248,2.0,2.0,69,0.00,,,0.00,meteohub,2013-02-21 01:17:00,
2013-02-20 17:22:00,50.2,39.6,29.85,WSW,247,1.0,3.0,67,0.00,,,0.00,meteohub,2013-02-21 01:22:00,
2013-02-20 17:27:00,50.0,40.3,29.85,WSW,247,0.0,3.0,69,0.00,,,0.00,meteohub,2013-02-21 01:27:00,
2013-02-20 17:32:00,49.8,39.4,29.85,WSW,247,0.0,3.0,67,0.00,,,0.00,meteohub,2013-02-21 01:32:00,
2013-02-20 17:37:00,49.8,39.7,29.85,WSW,247,0.0,3.0,68,0.00,,,0.00,meteohub,2013-02-21 01:37:00,
2013-02-20 17:42:00,49.8,40.1,29.85,WSW,247,0.0,2.0,69,0.00,,,0.00,meteohub,2013-02-21 01:42:00,
2013-02-20 17:47:00,49.6,41.0,29.85,WSW,247,0.0,2.0,72,0.00,,,0.00,meteohub,2013-02-21 01:47:00,
2013-02-20 17:52:00,49.3,40.6,29.85,WSW,247,0.0,1.0,72,0.00,,,0.00,meteohub,2013-02-21 01:52:00,
2013-02-20 17:57:00,48.9,40.3,29.86,WSW,247,0.0,1.0,72,0.00,,,0.00,meteohub,2013-02-21 01:57:00,
2013-02-20 18:02:00,48.7,40.1,29.86,WSW,247,0.0,1.0,72,0.00,,,0.00,meteohub,2013-02-21 02:02:00,
2013-02-20 18:07:00,48.4,39.7,29.86,WSW,247,0.0,1.0,72,0.00,,,0.00,meteohub,2013-02-21 02:07:00,
2013-02-20 18:12:00,48.2,38.8,29.86,WSW,248,0.0,1.0,70,0.00,,,0.00,meteohub,2013-02-21 02:12:00,
2013-02-20 18:17:00,48.0,39.0,29.86,WSW,252,1.0,5.0,71,0.00,,,0.00,meteohub,2013-02-21 02:17:00,
2013-02-20 18:22:00,48.7,38.7,29.86,WSW,257,3.0,5.0,68,0.00,,,0.00,meteohub,2013-02-21 02:22:00,
2013-02-20 18:27:00,49.5,38.7,29.86,WSW,257,0.0,6.0,66,0.00,,,0.00,meteohub,2013-02-21 02:27:00,
2013-02-20 18:32:00,49.6,38.7,29.86,WSW,256,1.0,6.0,66,0.00,,,0.00,meteohub,2013-02-21 02:32:00,
2013-02-20 18:37:00,49.8,38.5,29.86,WSW,240,4.0,6.0,65,0.00,,,0.00,meteohub,2013-02-21 02:37:00,
2013-02-20 18:42:00,50.0,38.7,29.87,West,271,1.0,9.0,65,0.00,,,0.00,meteohub,2013-02-21 02:42:00,
2013-02-20 18:47:00,49.8,38.5,29.87,West,271,1.0,9.0,65,0.00,,,0.00,meteohub,2013-02-21 02:47:00,
2013-02-20 18:52:00,49.8,38.5,29.87,West,271,0.0,9.0,65,0.00,,,0.00,meteohub,2013-02-21 02:52:00,
2013-02-20 18:57:00,49.6,38.7,29.87,WSW,257,3.0,8.0,66,0.00,,,0.00,meteohub,2013-02-21 02:57:00,
2013-02-20 19:02:00,49.5,38.7,29.87,WNW,302,1.0,11.0,66,0.00,,,0.00,meteohub,2013-02-21 03:02:00,
2013-02-20 19:07:00,49.5,38.7,29.87,WNW,294,2.0,11.0,66,0.00,,,0.00,meteohub,2013-02-21 03:07:00,
2013-02-20 19:12:00,49.5,38.7,29.88,West,267,1.0,11.0,66,0.00,,,0.00,meteohub,2013-02-21 03:12:00,
2013-02-20 19:17:00,49.3,38.5,29.88,WNW,292,6.0,11.0,66,0.00,,,0.00,meteohub,2013-02-21 03:17:00,
2013-02-20 19:22:00,49.1,38.3,29.88,WNW,287,2.0,11.0,66,0.00,,,0.00,meteohub,2013-02-21 03:22:00,
2013-02-20 19:27:00,48.9,38.1,29.88,WSW,244,0.0,6.0,66,0.00,,,0.00,meteohub,2013-02-21 03:27:00,
2013-02-20 19:32:00,48.7,38.3,29.88,WSW,245,1.0,9.0,67,0.00,,,0.00,meteohub,2013-02-21 03:32:00,
2013-02-20 19:37:00,48.6,38.1,29.88,WSW,251,0.0,9.0,67,0.00,,,0.00,meteohub,2013-02-21 03:37:00,
2013-02-20 19:42:00,48.4,37.9,29.89,WSW,242,0.0,9.0,67,0.00,,,0.00,meteohub,2013-02-21 03:42:00,
2013-02-20 19:47:00,48.0,37.6,29.89,WSW,245,0.0,5.0,67,0.00,,,0.00,meteohub,2013-02-21 03:47:00,
2013-02-20 19:52:00,48.0,37.9,29.89,WSW,246,0.0,7.0,68,0.00,,,0.00,meteohub,2013-02-21 03:52:00,
2013-02-20 19:57:00,47.7,39.0,29.90,WSW,246,0.0,7.0,72,0.00,,,0.00,meteohub,2013-02-21 03:57:00,
2013-02-20 20:04:00,47.3,39.0,29.90,WSW,246,0.0,7.0,73,0.00,,,0.00,meteohub,2013-02-21 04:04:00,
2013-02-20 20:09:00,46.8,38.8,29.90,WSW,246,0.0,4.0,74,0.00,,,0.00,meteohub,2013-02-21 04:09:00,
2013-02-20 20:14:00,46.2,38.7,29.90,WSW,246,0.0,1.0,75,0.00,,,0.00,meteohub,2013-02-21 04:14:00,
2013-02-20 20:19:00,46.0,38.8,29.90,WSW,246,0.0,1.0,76,0.00,,,0.00,meteohub,2013-02-21 04:19:00,
2013-02-20 20:24:00,45.9,39.0,29.90,WSW,246,0.0,1.0,77,0.00,,,0.00,meteohub,2013-02-21 04:24:00,
2013-02-20 20:29:00,45.5,38.3,29.90,WSW,246,0.0,1.0,76,0.00,,,0.00,meteohub,2013-02-21 04:29:00,
2013-02-20 20:34:00,45.1,38.3,29.90,WSW,246,0.0,0.0,77,0.00,,,0.00,meteohub,2013-02-21 04:34:00,
2013-02-20 20:39:00,44.8,38.3,29.90,WSW,246,0.0,1.0,78,0.00,,,0.00,meteohub,2013-02-21 04:39:00,
2013-02-20 20:44:00,44.2,37.6,29.90,WSW,246,0.0,1.0,77,0.00,,,0.00,meteohub,2013-02-21 04:44:00,
2013-02-20 20:49:00,43.9,37.4,29.90,WSW,246,0.0,1.0,78,0.00,,,0.00,meteohub,2013-02-21 04:49:00,
2013-02-20 20:54:00,43.3,37.2,29.90,WSW,246,0.0,0.0,79,0.00,,,0.00,meteohub,2013-02-21 04:54:00,
2013-02-20 20:59:00,43.0,37.2,29.90,WSW,246,0.0,0.0,80,0.00,,,0.00,meteohub,2013-02-21 04:59:00,
2013-02-20 21:00:00,43.0,37.2,29.90,WSW,246,0.0,0.0,80,0.00,,,0.00,meteohub,2013-02-21 05:00:00,
2013-02-20 21:05:00,42.4,37.0,29.90,WSW,246,0.0,0.0,81,0.00,,,0.00,meteohub,2013-02-21 05:05:00,
2013-02-20 21:10:00,42.3,37.2,29.91,WSW,246,0.0,0.0,82,0.00,,,0.00,meteohub,2013-02-21 05:10:00,
2013-02-20 21:15:00,41.7,36.7,29.91,WSW,246,0.0,0.0,82,0.00,,,0.00,meteohub,2013-02-21 05:15:00,
2013-02-20 21:20:00,41.4,36.5,29.91,WSW,246,0.0,0.0,83,0.00,,,0.00,meteohub,2013-02-21 05:20:00,
2013-02-20 21:25:00,41.0,36.3,29.92,WSW,246,0.0,0.0,83,0.00,,,0.00,meteohub,2013-02-21 05:25:00,
2013-02-20 21:30:00,40.6,36.5,29.92,WSW,246,0.0,0.0,85,0.00,,,0.00,meteohub,2013-02-21 05:30:00,
2013-02-20 21:35:00,40.5,36.3,29.92,WSW,246,0.0,0.0,85,0.00,,,0.00,meteohub,2013-02-21 05:35:00,
2013-02-20 21:40:00,40.1,36.3,29.92,WSW,246,0.0,0.0,86,0.00,,,0.00,meteohub,2013-02-21 05:40:00,
2013-02-20 21:45:00,39.9,36.1,29.92,WSW,246,0.0,0.0,86,0.00,,,0.00,meteohub,2013-02-21 05:45:00,
2013-02-20 21:50:00,39.6,35.8,29.92,WSW,246,0.0,0.0,86,0.00,,,0.00,meteohub,2013-02-21 05:50:00,
2013-02-20 21:56:00,39.4,35.8,29.92,WSW,246,0.0,0.0,87,0.00,,,0.00,meteohub,2013-02-21 05:56:00,
2013-02-20 22:01:00,39.2,36.0,29.92,WSW,246,0.0,0.0,88,0.00,,,0.00,meteohub,2013-02-21 06:01:00,
2013-02-20 22:06:00,39.0,35.8,29.92,WSW,246,0.0,1.0,88,0.00,,,0.00,meteohub,2013-02-21 06:06:00,
2013-02-20 22:11:00,39.2,36.3,29.93,WSW,246,0.0,1.0,89,0.00,,,0.00,meteohub,2013-02-21 06:11:00,
2013-02-20 22:16:00,39.0,36.1,29.93,WSW,246,0.0,1.0,89,0.00,,,0.00,meteohub,2013-02-21 06:16:00,
2013-02-20 22:21:00,39.0,36.1,29.93,WSW,246,0.0,1.0,89,0.00,,,0.00,meteohub,2013-02-21 06:21:00,
2013-02-20 22:26:00,38.8,36.0,29.92,WSW,246,0.0,1.0,89,0.00,,,0.00,meteohub,2013-02-21 06:26:00,
2013-02-20 22:31:00,38.8,36.0,29.92,WSW,246,0.0,0.0,89,0.00,,,0.00,meteohub,2013-02-21 06:31:00,
2013-02-20 22:36:00,38.8,36.1,29.92,WSW,246,0.0,0.0,90,0.00,,,0.00,meteohub,2013-02-21 06:36:00,
2013-02-20 22:41:00,38.7,35.8,29.91,WSW,246,0.0,0.0,89,0.00,,,0.00,meteohub,2013-02-21 06:41:00,
2013-02-20 22:46:00,38.5,35.6,29.91,WSW,246,0.0,0.0,89,0.00,,,0.00,meteohub,2013-02-21 06:46:00,
2013-02-20 22:51:00,38.3,35.6,29.91,WSW,246,0.0,0.0,90,0.00,,,0.00,meteohub,2013-02-21 06:51:00,
2013-02-20 22:56:00,38.1,35.4,29.92,WSW,246,0.0,0.0,90,0.00,,,0.00,meteohub,2013-02-21 06:56:00,
2013-02-20 23:01:00,38.1,35.8,29.92,WSW,246,0.0,0.0,91,0.00,,,0.00,meteohub,2013-02-21 07:01:00,
2013-02-20 23:06:00,37.9,35.2,29.92,WSW,246,0.0,0.0,90,0.00,,,0.00,meteohub,2013-02-21 07:06:00,
2013-02-20 23:11:00,37.9,35.6,29.92,WSW,246,0.0,0.0,91,0.00,,,0.00,meteohub,2013-02-21 07:11:00,
2013-02-20 23:16:00,38.1,36.0,29.92,WSW,246,0.0,1.0,92,0.00,,,0.00,meteohub,2013-02-21 07:16:00,
2013-02-20 23:21:00,38.7,36.9,29.92,WSW,246,0.0,3.0,93,0.00,,,0.00,meteohub,2013-02-21 07:21:00,
2013-02-20 23:26:00,38.8,36.7,29.92,WSW,246,0.0,3.0,92,0.00,,,0.00,meteohub,2013-02-21 07:26:00,
2013-02-20 23:31:00,39.0,36.7,29.92,WSW,243,6.0,6.0,91,0.00,,,0.00,meteohub,2013-02-21 07:31:00,
2013-02-20 23:36:00,39.9,37.2,29.92,WSW,244,0.0,6.0,90,0.00,,,0.00,meteohub,2013-02-21 07:36:00,
2013-02-20 23:41:00,40.6,37.6,29.92,WSW,244,2.0,6.0,89,0.00,,,0.00,meteohub,2013-02-21 07:41:00,
2013-02-20 23:46:00,41.2,37.6,29.92,WSW,244,0.0,6.0,87,0.00,,,0.00,meteohub,2013-02-21 07:46:00,
2013-02-20 23:51:00,41.4,37.8,29.92,WSW,244,0.0,5.0,87,0.00,,,0.00,meteohub,2013-02-21 07:51:00,
2013-02-20 23:56:00,41.4,37.6,29.92,WSW,244,0.0,3.0,86,0.00,,,0.00,meteohub,2013-02-21 07:56:00,